Hourly Weather Roundup
Issued by NWS Central Illinois

Home | Current Version | Previous Version | Text Only | Print | Product List | Glossary On
Versions: 1 2 3 4 5 6 7 8 9 10 11 12 13 14 15 16 17 18 19 20 21 22 23 24 25 26 27 28 29 30 31 32 33 34 35 36 37 38 39 40 41 42 43 44 45 46 47 48 49 50
000
NZUS43 KILX 041010
HWRILX

AREA WEATHER ROUNDUP
NATIONAL WEATHER SERVICE, LINCOLN IL
400 AM CST SUN DEC 04 2016


CITY           SKY/WX    TMP DP  RH WIND       PRES   REMARKS
BLOOMINGTON    CLOUDY    31  29  92 E7        30.18F WCI  24
CHAMPAIGN      CLOUDY    33  28  81 E7        30.18F WCI  27
DANVILLE       CLOUDY    32  28  86 NE3       30.17F
DECATUR        CLOUDY   N/A N/A N/A E8        30.18F
EFFINGHAM      CLOUDY    36  33  87 E6        30.18F WCI  31
FLORA          LGT RAIN  38  33  82 E6        30.17F WCI  33
GALESBURG      CLOUDY    32  29  88 E8        30.15F WCI  25
JACKSONVILLE   CLOUDY    35  32  88 SE9       30.14F WCI  28
LACON          CLOUDY    32  27  83 SE5       30.18F WCI  27
LAWRENCEVILLE  CLOUDY    38  31  76 E6        30.19F WCI  33
LITCHFIELD     CLOUDY    36  32  85 E6        30.14F WCI  31
$$


CITY           SKY/WX    TMP DP  RH WIND       PRES   REMARKS
LINCOLN        CLOUDY    35  31  87 E6        30.17F WCI  29
MACOMB         CLOUDY    34  32  93 SE8       30.18S WCI  27
MATTOON        CLOUDY    34  29  82 E5        30.17F WCI  30
MT CARMEL AP   DRIZZLE   37  32  81 E6        30.18F WCI  33
OLNEY-NOBLE AP LGT RAIN  36  34  93 E6        30.18F WCI  31
PARIS          CLOUDY    33  31  92 E5        30.20S WCI  28
PEORIA         CLOUDY    34  28  79 E7        30.17F WCI  28
PONTIAC        CLOUDY    32  32  98 E5        30.20F WCI  28
RANTOUL        CLOUDY    33  31  90 E6        30.18F WCI  28
SPRINGFIELD    CLOUDY    36  31  82 SE8       30.16F WCI  30
TAYLORVILLE    CLOUDY    34  32  90 E6        30.15F WCI  29
$$

...REGIONAL REPORTS...


CITY           SKY/WX    TMP DP  RH WIND       PRES   REMARKS
CHICAGO O`HARE CLOUDY    31  25  78 CALM      30.21F
KANKAKEE       CLOUDY    32  28  87 E3        30.22F
MOLINE         CLOUDY    35  28  75 SE8       30.15F WCI  29
MOUNT STERLING LGT RAIN  35  32  90 SE5       30.14S WCI  31
MOUNT VERNON   NOT AVBL
PITTSFIELD     LGT RAIN  37  35  94 CALM      30.14F
QUINCY         LGT RAIN  37  34  89 SE6       30.13F FOG     WCI  32
ROCKFORD       CLOUDY    32  27  81 S8        30.20F WCI  25
$$


CITY           SKY/WX    TMP DP  RH WIND       PRES   REMARKS
BURLINGTON     LGT SNOW  33  32  96 SE9       30.13F FOG     WCI  25
CEDAR RAPIDS   LGT SNOW  32  32 100 SE9       30.09F FOG     WCI  24
DES MOINES     LGT SNOW  37  35  92 S10       30.04F FOG     WCI  30
KIRKSVILLE     MIX PCPN  35  34  96 SE9       30.09F FOG     WCI  28
OTTUMWA        LGT SNOW  35  32  88 S12       30.08F FOG     WCI  27
ST LOUIS       LGT RAIN  39  33  79 E10       30.13F WCI  32
$$


CITY           SKY/WX    TMP DP  RH WIND       PRES   REMARKS
TERRE HAUTE    CLOUDY    34  29  82 E6        30.20F WCI  29
EVANSVILLE     CLOUDY    39  34  82 E6        30.17F WCI  35
INDIANAPOLIS   CLOUDY    34  27  75 E7        30.19F WCI  28
LAFAYETTE      CLOUDY    33  28  81 E7        30.21F WCI  27
MADISON        LGT SNOW  31  29  92 SE6       30.16F FOG     WCI  25
MILWAUKEE      CLOUDY    29  23  78 CALM      30.20F
$$





USA.gov is the U.S. government's official web portal to all federal, state and local government web resources and services.